Dewpoint
47 47 47 47 47 47 47 47 48 48 48 47 46 45 45 45 44 44 44 45 45 44 44 45 45 45 46 47 48 48 49 49 49 49 49 49 49 49 49 50 53 54 55 54 55 55 55 56 57 58 58 60 60 61 62 63 62 62 61 61 61 62 62 62 62 63 63 63 63
46 46 46 47 48 48 47 47 48 48 48 48 47 46 46 46 45 45 45 45 46 46 46 46 46 46 47 47 48 49 49 49 49 49 49 49 49 50 50 50 51 52 53 53 52 53 53 53 54 55 56 57 58 58 59 62 63 62 61 60 60 61 61 62 62 62 63 63 63
45 45 46 46 46 46 46 46 47 47 47 47 47 47 47 46 46 46 45 45 46 46 46 46 46 46 47 48 49 49 49 49 49 49 50 50 50 50 51 51 52 53 53 53 53 54 54 54 53 54 54 55 55 56 57 58 59 60 59 59 59 60 61 62 62 62 62 63 63
44 45 45 45 45 45 45 45 45 45 46 47 47 47 47 47 47 47 46 46 46 46 46 46 46 47 48 49 49 50 50 51 51 50 50 50 50 51 51 52 53 53 54 55 56 57 56 55 54 53 53 54 54 55 55 56 57 58 58 59 59 59 60 61 62 62 62 62 62
44 44 44 45 45 45 45 45 45 45 46 46 47 47 47 47 47 47 46 46 46 46 47 48 49 49 49 50 50 50 51 51 51 51 51 50 51 51 52 53 53 54 55 57 58 58 58 57 55 54 53 53 54 55 56 57 57 57 58 60 61 61 61 62 62 62 62 62 62
44 44 44 45 45 45 45 45 45 45 45 46 46 46 45 46 46 46 46 46 46 47 49 50 49 49 49 50 50 50 51 51 51 51 51 50 51 52 53 53 54 56 56 56 56 56 57 55 55 55 54 54 53 54 55 56 57 58 59 60 61 62 62 62 62 62 62 62 60
44 44 44 44 45 45 45 45 45 45 45 45 45 45 45 45 46 46 47 47 48 49 49 49 49 49 49 50 50 50 50 50 50 50 50 51 52 53 53 54 53 53 53 53 53 53 53 53 54 54 53 53 54 54 54 55 57 58 60 61 62 62 62 62 62 61 60 60 58
44 44 44 45 45 45 46 46 46 46 46 46 46 46 46 46 47 47 48 48 49 49 49 49 49 49 50 49 49 49 49 49 49 50 51 52 53 53 53 52 52 52 52 52 53 53 53 54 55 55 55 55 55 56 56 55 58 58 59 61 60 59 59 60 59 58 58 58 57
44 45 45 46 46 46 46 46 46 47 47 47 47 47 47 48 48 48 49 49 49 49 49 49 49 49 50 49 49 49 50 50 51 51 52 52 52 52 52 52 52 52 52 52 53 53 53 54 55 55 56 56 57 57 57 58 59 59 59 60 58 57 56 57 57 57 57 57 55
45 45 46 46 47 47 47 47 47 47 48 48 48 48 49 49 49 49 49 50 50 50 49 49 49 49 49 49 50 51 51 52 53 54 53 53 53 53 53 53 53 52 53 53 53 53 53 54 54 54 54 55 57 58 58 60 60 60 59 58 56 55 55 55 55 55 55 54 53
45 46 46 46 47 47 47 47 47 47 48 48 48 48 49 49 49 49 49 50 50 49 49 49 49 49 49 49 50 50 50 50 52 53 54 53 53 53 53 53 53 53 54 54 54 53 53 53 53 53 54 55 56 58 59 59 59 58 58 55 54 53 53 53 53 53 53 52 51
45 45 46 46 47 47 47 47 47 47 47 48 48 48 48 49 49 49 49 49 49 49 49 49 49 49 49 49 49 49 49 49 49 49 50 51 51 51 52 53 53 54 54 55 54 53 53 53 53 54 54 55 56 57 58 58 58 57 55 53 53 52 52 51 51 51 51 50 49
44 45 45 46 46 47 47 47 47 47 47 47 48 48 48 48 49 49 49 49 49 49 49 49 49 49 49 49 49 48 48 48 48 48 49 49 49 49 49 50 51 52 53 53 53 53 53 53 55 56 57 56 56 56 56 56 56 54 53 52 52 51 51 50 50 49 49 49 48
44 44 45 45 46 46 46 46 46 47 47 47 48 48 48 48 48 48 48 48 49 48 48 49 49 48 48 47 47 47 47 47 47 47 47 47 47 47 48 48 49 50 50 51 50 51 53 53 54 55 55 54 54 53 53 54 53 53 52 51 50 50 49 49 49 49 48 47 46
44 44 44 45 46 46 46 46 47 47 47 47 48 48 47 48 48 48 48 48 48 48 48 48 48 47 47 46 46 46 46 46 46 46 46 46 46 46 47 47 48 48 49 49 49 50 51 52 52 53 52 52 51 51 51 51 51 51 50 49 49 49 48 48 48 48 47 46 45
43 44 45 45 45 46 46 46 47 47 47 47 47 47 47 47 47 47 47 47 47 47 47 47 47 46 46 46 45 45 45 45 45 45 45 45 46 46 47 47 47 48 48 49 48 49 49 49 50 50 50 50 49 49 49 49 49 49 48 48 47 47 47 47 47 46 46 45 44
44 44 45 45 46 46 46 46 46 47 47 47 47 47 47 47 47 47 47 46 46 46 46 46 46 46 46 46 45 45 45 45 45 45 45 45 45 45 46 46 46 46 47 47 47 47 48 48 48 48 48 48 48 47 47 47 47 46 46 46 46 46 46 46 46 45 45 45 44
44 45 45 45 46 46 46 46 46 46 46 46 46 46 46 46 46 46 46 46 46 45 45 45 45 45 45 45 45 44 44 44 44 44 44 44 44 44 44 44 44 44 44 44 45 45 46 46 46 46 46 46 46 46 46 46 45 45 45 45 45 45 45 45 45 45 45 45 44
45 45 46 46 46 46 46 46 46 45 45 45 46 46 45 46 45 45 45 45 45 45 44 44 44 44 44 44 44 44 44 43 43 43 43 44 44 43 43 43 43 43 43 43 43 44 44 44 44 44 44 45 45 45 45 44 44 44 44 44 44 44 44 44 44 44 44 44 44
45 45 45 45 46 45 45 45 45 45 45 45 45 45 45 45 45 44 44 44 44 44 44 44 44 44 44 44 44 43 43 43 43 43 43 43 44 43 42 42 42 42 42 42 42 43 43 43 43 43 44 44 44 44 44 44 44 44 44 44 44 44 44 44 44 44 44 44 44
45 45 45 45 45 45 45 45 45 45 45 45 45 44 44 45 45 44 44 44 44 44 44 44 43 43 43 43 43 43 43 43 42 42 43 43 44 43 43 42 42 42 42 42 42 42 42 42 42 42 43 43 43 43 43 43 43 43 43 43 43 43 43 43 43 43 43 43 43
45 45 45 45 45 44 44 44 44 44 44 44 44 44 44 44 44 44 44 44 44 44 44 44 43 43 43 42 42 42 42 42 42 42 42 42 43 43 42 42 43 43 43 43 42 42 42 41 41 42 42 42 42 42 41 41 41 41 41 41 41 41 41 42 42 42 42 42 42
45 45 45 44 44 44 44 44 44 44 44 44 44 44 44 44 43 44 44 44 43 43 43 43 43 42 42 42 42 41 41 41 41 42 42 41 42 42 43 42 43 44 43 43 43 43 42 42 41 41 41 41 41 41 40 40 40 40 40 40 40 40 40 41 41 41 41 41 41
45 45 44 44 44 44 44 44 44 44 44 44 43 43 43 43 43 43 43 43 43 43 42 42 42 41 41 41 41 41 41 41 41 41 41 40 41 42 42 42 42 42 43 43 44 43 43 42 42 42 42 41 42 41 40 40 40 40 40 40 40 40 40 40 40 41 40 40 40
45 44 44 44 44 44 44 44 44 44 44 43 43 42 42 42 42 43 43 42 42 42 42 41 41 41 41 40 40 40 40 40 41 41 41 41 41 41 41 41 41 41 42 43 43 43 43 43 43 42 42 42 42 42 41 41 40 40 40 40 40 40 40 40 40 40 40 39 38
44 44 44 44 44 44 44 44 44 44 44 43 42 42 42 42 42 42 42 42 42 42 41 41 41 41 41 41 40 41 41 41 41 42 42 42 42 41 41 41 41 41 42 42 43 43 43 43 43 43 43 42 42 41 40 40 41 40 40 40 39 39 38 38 38 37 36 36 35
44 44 44 44 44 44 44 44 44 44 43 43 42 42 41 41 42 42 42 42 42 42 42 41 41 41 41 41 41 41 41 41 41 41 41 41 42 41 41 42 41 41 42 43 43 43 43 43 43 43 43 42 42 41 40 40 40 40 40 39 38 38 37 37 36 35 35 35 35
44 44 44 44 44 44 44 44 44 43 43 42 42 41 41 41 41 42 42 42 42 42 42 41 42 42 42 42 41 41 41 41 41 41 41 41 41 41 41 41 42 42 42 43 43 43 43 43 43 42 42 41 41 40 39 39 39 39 40 38 38 38 38 37 36 36 35 35 35
44 44 43 43 43 43 43 43 43 43 42 42 41 41 41 41 41 41 42 42 42 42 42 42 42 42 42 42 41 41 41 41 41 41 41 40 41 41 41 41 41 42 42 43 43 43 43 43 42 42 42 41 40 40 39 38 38 38 38 38 38 38 38 37 37 36 36 36 36
43 43 43 43 42 42 42 42 42 41 41 40 40 40 40 41 41 41 41 41 41 42 42 42 42 42 42 42 41 42 42 42 41 41 41 40 41 41 41 41 41 42 42 43 43 43 42 42 42 41 41 40 40 38 38 38 38 38 38 38 38 38 37 37 36 36 36 36 36
43 43 43 42 42 41 41 41 41 40 40 40 40 40 40 40 40 41 41 41 42 43 43 43 43 42 42 43 42 42 42 41 41 41 40 40 41 41 41 42 41 41 42 43 42 42 42 41 41 41 40 40 39 38 38 38 38 38 38 38 38 37 37 36 36 36 36 35 35
43 43 42 42 41 41 41 41 40 40 40 40 40 40 40 40 41 41 42 42 42 43 43 44 43 43 43 43 43 43 42 41 41 41 40 40 40 41 41 41 41 41 42 42 42 41 41 41 40 40 40 39 38 37 37 38 38 38 37 37 37 37 36 36 35 35 35 35 35
43 43 42 41 41 40 40 40 40 40 40 40 40 40 40 40 41 42 42 42 43 43 43 43 43 43 43 43 43 43 42 41 40 41 41 41 41 41 41 41 42 42 42 42 41 41 41 40 40 39 39 38 38 37 37 37 37 36 36 36 36 36 35 35 35 35 35 34 34
43 42 41 40 40 40 40 40 40 40 40 40 40 40 40 41 41 41 41 42 43 43 43 43 43 43 43 43 43 42 41 40 40 40 41 41 41 41 41 41 42 41 41 41 41 40 40 40 39 39 38 38 38 37 36 35 35 35 35 35 35 35 34 34 34 34 33 33 33
42 41 41 40 40 40 40 40 40 40 40 40 41 41 40 41 41 41 42 43 43 43 43 43 43 42 42 41 41 40 40 40 40 40 40 40 40 40 40 41 41 41 41 41 40 40 40 39 39 38 37 37 37 36 35 35 34 34 34 33 33 32 32 32 32 32 32 32 32
42 41 40 40 40 40 40 40 40 41 41 41 41 41 41 42 42 42 42 42 42 42 43 42 42 41 41 40 40 40 40 39 40 40 40 40 40 40 40 41 41 41 40 40 40 40 39 39 38 37 36 36 35 34 34 33 33 32 32 31 31 31 31 30 31 31 31 31 31
41 40 40 40 40 40 40 41 41 41 41 42 41 41 41 42 42 42 42 42 42 42 42 41 41 40 40 40 40 40 40 39 39 40 40 40 40 40 40 40 40 40 40 40 40 39 38 38 37 36 35 35 34 33 32 31 31 31 30 30 30 30 30 30 30 31 31 31 31
42 41 40 40 41 41 41 41 41 42 42 42 41 41 41 42 41 42 42 41 41 41 41 40 40 40 40 40 40 40 40 39 39 39 40 40 40 40 40 40 40 40 40 40 39 38 38 37 36 35 35 33 32 31 31 30 29 29 29 29 29 29 30 30 31 31 31 31 31
43 42 42 42 42 41 41 41 41 42 42 42 41 41 41 41 41 41 41 41 41 40 40 40 40 40 40 40 39 39 39 39 40 40 40 40 40 40 40 40 40 40 40 39 38 38 37 36 35 35 34 32 31 31 30 29 28 28 28 28 28 28 29 30 30 31 30 30 31
44 43 43 42 42 42 41 41 42 42 42 42 41 41 40 41 41 41 41 41 41 41 40 40 40 40 40 39 39 38 38 39 39 39 39 39 39 40 40 40 40 39 39 38 38 37 36 35 35 33 32 31 31 30 29 29 28 27 27 27 26 27 27 28 29 29 29 29 30
44 43 43 43 42 42 42 41 42 42 42 42 41 41 41 41 40 40 40 41 41 41 40 40 40 40 39 39 38 37 36 36 37 37 37 37 37 38 39 40 39 39 38 38 37 37 36 35 33 32 31 30 30 29 28 28 27 26 26 26 25 25 25 26 26 27 27 28 29